Weather History for Smyrna, TN

Change the Weather History Date:

Tuesday, November 1, 2011

  Actual Average Record
Temperature  
Mean Temperature 52 °F -  
Max Temperature 72 °F 64 °F 82 °F (2000)
Min Temperature 32 °F 47 °F 27 °F (2012)
Degree Days  
Heating Degree Days 13    
Growing Degree Days 2 (Base 50)    
Moisture  
Dew Point 34 °F    
Average Humidity 65    
Maximum Humidity 100    
Minimum Humidity 22    
Precipitation  
Precipitation 0.00 in - - ()
Sea Level Pressure  
Sea Level Pressure 30.27 in    
Wind  
Wind Speed 1 mph (SSE)    
Max Wind Speed 8 mph    
Max Gust Speed -    
Visibility 10 miles    
Events      
Averages and records for this station are not official NWS values.
T = Trace of Precipitation, MM = Missing Value Source: NWS Daily Summary

Daily Weather History Graph

Daily Weather History Graph

Search for Another Location

Airport:

Trip Planner

Search our weather history database for the weather conditions in past years. The results will help you decide how hot, cold, wet, or windy it might be!

Date:

Astronomy

Nov. 01, 2011 Rise Set
Actual Time 7:08 AM CDT 5:50 PM CDT
Civil Twilight 6:41 AM CDT 6:16 PM CDT
Nautical Twilight 6:11 AM CDT 6:47 PM CDT
Astronomical Twilight 5:41 AM CDT 7:17 PM CDT
Moon 12:52 PM CDT (11/1) 11:33 PM CDT (11/1)
Length of Visible Light 11h 35m
Length of Day
10h 42m
Waxing Crescent, 40% of the Moon is Illuminated
Nov 1
Waxing Crescent
Nov 2
First Quarter
Nov 10
Full
Nov 18
Last Quarter
Nov 25
New

Hourly Weather History & Observations

Time (CDT) Temp. Windchill Dew Point Humidity Pressure Visibility Wind Dir Wind Speed Gust Speed Precip Events Conditions
12:56 AM 36.0 °F - 32.9 °F 89% 30.24 in 10.0 mi Calm Calm - N/A   Clear
1:56 AM 34.9 °F - 32.9 °F 92% 30.24 in 10.0 mi Calm Calm - N/A   Clear
3:56 AM 32.9 °F - 32.0 °F 96% 30.25 in 10.0 mi Calm Calm - N/A   Clear
4:56 AM 32.9 °F - 32.0 °F 96% 30.27 in 10.0 mi Calm Calm - N/A   Clear
5:56 AM 32.0 °F - 32.0 °F 100% 30.28 in 10.0 mi Calm Calm - N/A   Clear
8:56 AM 43.0 °F 41.3 °F 37.9 °F 82% 30.33 in 10.0 mi SSE 3.5 mph - N/A   Clear
9:56 AM 54.9 °F - 36.0 °F 49% 30.34 in 10.0 mi Calm Calm - N/A   Clear
10:56 AM 63.9 °F - 36.0 °F 36% 30.32 in 10.0 mi Calm Calm - N/A   Clear
12:56 PM 70.9 °F - 30.0 °F 22% 30.29 in 10.0 mi Calm Calm - N/A   Clear
1:56 PM 72.9 °F - 32.0 °F 22% 30.26 in 10.0 mi SE 6.9 mph - N/A   Clear
2:56 PM 72.9 °F - 32.0 °F 22% 30.25 in 10.0 mi SSE 8.1 mph - N/A   Clear
4:56 PM 68.0 °F - 34.9 °F 29% 30.24 in 10.0 mi Calm Calm - N/A   Clear
5:56 PM 61.9 °F - 32.0 °F 33% 30.23 in 10.0 mi Calm Calm - N/A   Clear
6:56 PM 50.9 °F - 36.0 °F 57% 30.25 in 10.0 mi Calm Calm - N/A   Clear
7:56 PM 45.9 °F - 36.9 °F 71% 30.25 in 10.0 mi Calm Calm - N/A   Clear
8:56 PM 43.9 °F - 36.9 °F 76% 30.25 in 10.0 mi Calm Calm - N/A   Clear
9:56 PM 41.9 °F - 36.9 °F 82% 30.27 in 10.0 mi Calm Calm - N/A   Clear
10:56 PM 39.9 °F - 36.9 °F 89% 30.27 in 10.0 mi Calm Calm - N/A   Clear
11:56 PM 37.9 °F - 36.0 °F 93% 30.26 in 10.0 mi Calm Calm - N/A   Clear